date,time,SUV Intensity [MED/Hr],UV Index,Daily total [MED],Since Last [MED]
08/01/2023,00:01:29,0.000,0.0,0.0,0.0
08/01/2023,00:02:29,0.000,0.0,0.0,0.0
08/01/2023,00:03:29,0.000,0.0,0.0,0.0
08/01/2023,00:04:29,-0.000,0.0,0.0,0.0
08/01/2023,00:05:29,-0.000,0.0,0.0,0.0
08/01/2023,00:06:29,0.000,0.0,0.0,0.0
08/01/2023,00:07:29,0.000,0.0,0.0,0.0
08/01/2023,00:08:31,0.000,0.0,0.0,0.0
08/01/2023,00:09:29,0.000,0.0,0.0,0.0
08/01/2023,00:10:29,-0.000,0.0,0.0,0.0
08/01/2023,00:11:29,0.000,0.0,0.0,0.0
08/01/2023,00:12:29,0.000,0.0,0.0,0.0
08/01/2023,00:13:29,0.000,0.0,0.0,0.0
08/01/2023,00:14:29,-0.000,0.0,0.0,0.0
08/01/2023,00:15:29,-0.001,0.0,0.0,0.0
08/01/2023,00:16:29,-0.000,0.0,0.0,0.0
08/01/2023,00:17:29,0.000,0.0,0.0,0.0
08/01/2023,00:18:29,0.000,0.0,0.0,0.0
08/01/2023,00:19:29,0.000,0.0,0.0,0.0
08/01/2023,00:20:29,0.000,0.0,0.0,0.0
08/01/2023,00:21:30,0.000,0.0,0.0,0.0
08/01/2023,00:22:29,-0.000,0.0,0.0,0.0
08/01/2023,00:23:29,-0.001,0.0,0.0,0.0
08/01/2023,00:24:29,-0.000,0.0,0.0,0.0
08/01/2023,00:25:29,0.000,0.0,0.0,0.0
08/01/2023,00:26:29,-0.000,0.0,0.0,0.0
08/01/2023,00:27:30,0.000,0.0,0.0,0.0
08/01/2023,00:28:30,-0.000,0.0,0.0,0.0
08/01/2023,00:29:30,-0.000,0.0,0.0,0.0
08/01/2023,00:30:29,-0.000,0.0,0.0,0.0
08/01/2023,00:31:30,-0.000,0.0,0.0,0.0
08/01/2023,00:32:29,-0.000,0.0,0.0,0.0
08/01/2023,00:33:29,-0.000,0.0,0.0,0.0
08/01/2023,00:34:29,0.000,0.0,0.0,0.0
08/01/2023,00:35:29,-0.000,0.0,0.0,0.0
08/01/2023,00:36:30,-0.001,0.0,0.0,0.0
08/01/2023,00:37:29,-0.000,0.0,0.0,0.0
08/01/2023,00:38:29,-0.001,0.0,0.0,0.0
08/01/2023,00:39:29,0.000,0.0,0.0,0.0
08/01/2023,00:40:29,-0.001,0.0,0.0,0.0
08/01/2023,00:41:29,-0.000,0.0,0.0,0.0
08/01/2023,00:42:29,-0.001,0.0,0.0,0.0
08/01/2023,00:43:30,-0.000,0.0,0.0,0.0
08/01/2023,00:44:29,0.000,0.0,0.0,0.0
08/01/2023,00:45:29,-0.000,0.0,0.0,0.0
08/01/2023,00:46:29,-0.001,0.0,0.0,0.0
08/01/2023,00:47:29,-0.000,0.0,0.0,0.0
08/01/2023,00:48:29,-0.001,0.0,0.0,0.0
08/01/2023,00:49:30,-0.000,0.0,0.0,0.0
08/01/2023,00:50:29,-0.000,0.0,0.0,0.0
08/01/2023,00:51:29,0.000,0.0,0.0,0.0
08/01/2023,00:52:29,-0.000,0.0,0.0,0.0
08/01/2023,00:53:29,-0.001,0.0,0.0,0.0
08/01/2023,00:54:29,-0.000,0.0,0.0,0.0
08/01/2023,00:55:29,-0.001,0.0,0.0,0.0
08/01/2023,00:56:29,0.000,0.0,0.0,0.0
08/01/2023,00:57:29,-0.000,0.0,0.0,0.0
08/01/2023,00:58:29,0.000,0.0,0.0,0.0
08/01/2023,00:59:29,-0.000,0.0,0.0,0.0
08/01/2023,01:00:29,-0.001,0.0,0.0,0.0
08/01/2023,01:01:29,-0.000,0.0,0.0,0.0
08/01/2023,01:02:30,-0.000,0.0,0.0,0.0
08/01/2023,01:03:29,-0.001,0.0,0.0,0.0
08/01/2023,01:04:29,0.000,0.0,0.0,0.0
08/01/2023,01:05:29,-0.000,0.0,0.0,0.0
08/01/2023,01:06:29,-0.000,0.0,0.0,0.0
08/01/2023,01:07:29,-0.000,0.0,0.0,0.0
08/01/2023,01:08:29,-0.000,0.0,0.0,0.0
08/01/2023,01:09:29,-0.000,0.0,0.0,0.0
08/01/2023,01:10:30,-0.000,0.0,0.0,0.0
08/01/2023,01:11:29,-0.000,0.0,0.0,0.0
08/01/2023,01:12:29,-0.001,0.0,0.0,0.0
08/01/2023,01:13:29,-0.000,0.0,0.0,0.0
08/01/2023,01:14:29,-0.001,0.0,0.0,0.0
08/01/2023,01:15:29,-0.000,0.0,0.0,0.0
08/01/2023,01:16:29,-0.001,0.0,0.0,0.0
08/01/2023,01:17:29,-0.000,0.0,0.0,0.0
08/01/2023,01:18:29,-0.000,0.0,0.0,0.0
08/01/2023,01:19:29,-0.000,0.0,0.0,0.0
08/01/2023,01:20:29,-0.001,0.0,0.0,0.0
08/01/2023,01:21:29,-0.001,0.0,0.0,0.0
08/01/2023,01:22:29,0.000,0.0,0.0,0.0
08/01/2023,01:23:30,-0.000,0.0,0.0,0.0
08/01/2023,01:24:29,-0.001,0.0,0.0,0.0
08/01/2023,01:25:29,-0.001,0.0,0.0,0.0
08/01/2023,01:26:29,-0.000,0.0,0.0,0.0
08/01/2023,01:27:29,-0.000,0.0,0.0,0.0
08/01/2023,01:28:29,-0.000,0.0,0.0,0.0
08/01/2023,01:29:29,-0.000,0.0,0.0,0.0
08/01/2023,01:30:29,-0.000,0.0,0.0,0.0
08/01/2023,01:31:30,0.000,0.0,0.0,0.0
08/01/2023,01:32:29,-0.001,0.0,0.0,0.0
08/01/2023,01:33:29,0.000,0.0,0.0,0.0
08/01/2023,01:34:29,-0.000,0.0,0.0,0.0
08/01/2023,01:35:30,-0.000,0.0,0.0,0.0
08/01/2023,01:36:29,0.000,0.0,0.0,0.0
08/01/2023,01:37:29,-0.000,0.0,0.0,0.0
08/01/2023,01:38:29,-0.000,0.0,0.0,0.0
08/01/2023,01:39:29,0.000,0.0,0.0,0.0
08/01/2023,01:40:30,-0.000,0.0,0.0,0.0
08/01/2023,01:41:29,-0.000,0.0,0.0,0.0
08/01/2023,01:42:29,-0.000,0.0,0.0,0.0
08/01/2023,01:43:29,-0.000,0.0,0.0,0.0
08/01/2023,01:44:30,-0.001,0.0,0.0,0.0
08/01/2023,01:45:29,0.000,0.0,0.0,0.0
08/01/2023,01:46:29,-0.001,0.0,0.0,0.0
08/01/2023,01:47:29,-0.000,0.0,0.0,0.0
08/01/2023,01:48:29,-0.000,0.0,0.0,0.0
08/01/2023,01:49:29,0.000,0.0,0.0,0.0
08/01/2023,01:50:30,0.000,0.0,0.0,0.0
08/01/2023,01:51:29,-0.001,0.0,0.0,0.0
08/01/2023,01:52:29,-0.000,0.0,0.0,0.0
08/01/2023,01:53:29,-0.000,0.0,0.0,0.0
08/01/2023,01:54:29,-0.000,0.0,0.0,0.0
08/01/2023,01:55:29,-0.000,0.0,0.0,0.0
08/01/2023,01:56:29,-0.000,0.0,0.0,0.0
08/01/2023,01:57:30,-0.000,0.0,0.0,0.0
08/01/2023,01:58:29,-0.000,0.0,0.0,0.0
08/01/2023,01:59:29,-0.000,0.0,0.0,0.0
08/01/2023,02:00:29,-0.001,0.0,0.0,0.0
08/01/2023,02:01:29,-0.000,0.0,0.0,0.0
08/01/2023,02:02:30,-0.001,0.0,0.0,0.0
08/01/2023,02:03:29,-0.001,0.0,0.0,0.0
08/01/2023,02:04:29,-0.000,0.0,0.0,0.0
08/01/2023,02:05:29,-0.000,0.0,0.0,0.0
08/01/2023,02:06:29,-0.001,0.0,0.0,0.0
08/01/2023,02:07:29,-0.000,0.0,0.0,0.0
08/01/2023,02:08:29,-0.000,0.0,0.0,0.0
08/01/2023,02:09:29,-0.000,0.0,0.0,0.0
08/01/2023,02:10:29,-0.001,0.0,0.0,0.0
08/01/2023,02:11:30,-0.002,0.0,0.0,0.0
08/01/2023,02:12:29,-0.000,0.0,0.0,0.0
08/01/2023,02:13:29,-0.001,0.0,0.0,0.0
08/01/2023,02:14:29,-0.001,0.0,0.0,0.0
08/01/2023,02:15:29,-0.001,0.0,0.0,0.0
08/01/2023,02:16:29,-0.001,0.0,0.0,0.0
08/01/2023,02:17:30,-0.000,0.0,0.0,0.0
08/01/2023,02:18:30,-0.000,0.0,0.0,0.0
08/01/2023,02:19:29,0.000,0.0,0.0,0.0
08/01/2023,02:20:29,-0.001,0.0,0.0,0.0
08/01/2023,02:21:29,-0.001,0.0,0.0,0.0
08/01/2023,02:22:29,0.000,0.0,0.0,0.0
08/01/2023,02:23:30,0.000,0.0,0.0,0.0
08/01/2023,02:24:29,-0.001,0.0,0.0,0.0
08/01/2023,02:25:29,-0.000,0.0,0.0,0.0
08/01/2023,02:26:29,0.000,0.0,0.0,0.0
08/01/2023,02:27:30,-0.001,0.0,0.0,0.0
08/01/2023,02:28:29,-0.000,0.0,0.0,0.0
08/01/2023,02:29:30,-0.000,0.0,0.0,0.0
08/01/2023,02:30:29,0.000,0.0,0.0,0.0
08/01/2023,02:31:29,0.000,0.0,0.0,0.0
08/01/2023,02:32:30,0.000,0.0,0.0,0.0
08/01/2023,02:33:29,-0.001,0.0,0.0,0.0
08/01/2023,02:34:29,-0.000,0.0,0.0,0.0
08/01/2023,02:35:30,-0.000,0.0,0.0,0.0
08/01/2023,02:36:30,-0.000,0.0,0.0,0.0
08/01/2023,02:37:29,-0.000,0.0,0.0,0.0
08/01/2023,02:38:29,-0.000,0.0,0.0,0.0
08/01/2023,02:39:29,-0.000,0.0,0.0,0.0
08/01/2023,02:40:29,-0.000,0.0,0.0,0.0
08/01/2023,02:41:29,0.001,0.0,0.0,0.0
08/01/2023,02:42:29,0.000,0.0,0.0,0.0
08/01/2023,02:43:30,-0.002,0.0,0.0,0.0
08/01/2023,02:44:29,-0.000,0.0,0.0,0.0
08/01/2023,02:45:29,-0.000,0.0,0.0,0.0
08/01/2023,02:46:30,-0.000,0.0,0.0,0.0
08/01/2023,02:47:29,-0.001,0.0,0.0,0.0
08/01/2023,02:48:29,-0.001,0.0,0.0,0.0
08/01/2023,02:49:29,-0.001,0.0,0.0,0.0
08/01/2023,02:50:29,-0.001,0.0,0.0,0.0
08/01/2023,02:51:30,-0.001,0.0,0.0,0.0
08/01/2023,02:52:29,-0.000,0.0,0.0,0.0
08/01/2023,02:53:29,-0.001,0.0,0.0,0.0
08/01/2023,02:54:30,-0.001,0.0,0.0,0.0
08/01/2023,02:55:29,-0.000,0.0,0.0,0.0
08/01/2023,02:56:29,-0.000,0.0,0.0,0.0
08/01/2023,02:57:29,-0.000,0.0,0.0,0.0
08/01/2023,02:58:29,-0.001,0.0,0.0,0.0
08/01/2023,02:59:30,-0.000,0.0,0.0,0.0
08/01/2023,03:00:29,-0.000,0.0,0.0,0.0
08/01/2023,03:01:29,-0.000,0.0,0.0,0.0
08/01/2023,03:02:30,-0.000,0.0,0.0,0.0
08/01/2023,03:03:29,-0.001,0.0,0.0,0.0
08/01/2023,03:04:30,-0.001,0.0,0.0,0.0
08/01/2023,03:05:29,-0.001,0.0,0.0,0.0
08/01/2023,03:06:30,-0.001,0.0,0.0,0.0
08/01/2023,03:07:29,-0.000,0.0,0.0,0.0
08/01/2023,03:08:29,-0.000,0.0,0.0,0.0
08/01/2023,03:09:30,-0.002,0.0,0.0,0.0
08/01/2023,03:10:29,-0.000,0.0,0.0,0.0
08/01/2023,03:11:29,-0.000,0.0,0.0,0.0
08/01/2023,03:12:30,-0.000,0.0,0.0,0.0
08/01/2023,03:13:30,-0.000,0.0,0.0,0.0
08/01/2023,03:14:29,-0.001,0.0,0.0,0.0
08/01/2023,03:15:30,-0.001,0.0,0.0,0.0
08/01/2023,03:16:30,-0.000,0.0,0.0,0.0
08/01/2023,03:17:29,0.000,0.0,0.0,0.0
08/01/2023,03:18:29,-0.000,0.0,0.0,0.0
08/01/2023,03:19:30,0.000,0.0,0.0,0.0
08/01/2023,03:20:29,-0.000,0.0,0.0,0.0
08/01/2023,03:21:30,0.000,0.0,0.0,0.0
08/01/2023,03:22:29,-0.000,0.0,0.0,0.0
08/01/2023,03:23:29,-0.001,0.0,0.0,0.0
08/01/2023,03:24:29,-0.000,0.0,0.0,0.0
08/01/2023,03:25:30,-0.000,0.0,0.0,0.0
08/01/2023,03:26:29,-0.000,0.0,0.0,0.0
08/01/2023,03:27:29,-0.000,0.0,0.0,0.0
08/01/2023,03:28:29,-0.000,0.0,0.0,0.0
08/01/2023,03:29:29,-0.000,0.0,0.0,0.0
08/01/2023,03:30:29,0.000,0.0,0.0,0.0
08/01/2023,03:31:29,-0.000,0.0,0.0,0.0
08/01/2023,03:32:30,-0.000,0.0,0.0,0.0
08/01/2023,03:33:29,-0.000,0.0,0.0,0.0
08/01/2023,03:34:30,0.000,0.0,0.0,0.0
08/01/2023,03:35:29,-0.000,0.0,0.0,0.0
08/01/2023,03:36:29,0.000,0.0,0.0,0.0
08/01/2023,03:37:30,-0.000,0.0,0.0,0.0
08/01/2023,03:38:29,-0.000,0.0,0.0,0.0
08/01/2023,03:39:29,-0.000,0.0,0.0,0.0
08/01/2023,03:40:30,-0.000,0.0,0.0,0.0
08/01/2023,03:41:30,-0.000,0.0,0.0,0.0
08/01/2023,03:42:29,-0.000,0.0,0.0,0.0
08/01/2023,03:43:29,-0.000,0.0,0.0,0.0
08/01/2023,03:44:29,-0.000,0.0,0.0,0.0
08/01/2023,03:45:30,-0.000,0.0,0.0,0.0
08/01/2023,03:46:29,-0.001,0.0,0.0,0.0
08/01/2023,03:47:29,-0.000,0.0,0.0,0.0
08/01/2023,03:48:29,-0.000,0.0,0.0,0.0
08/01/2023,03:49:30,-0.000,0.0,0.0,0.0
08/01/2023,03:50:29,0.000,0.0,0.0,0.0
08/01/2023,03:51:29,-0.000,0.0,0.0,0.0
08/01/2023,03:52:30,-0.000,0.0,0.0,0.0
08/01/2023,03:53:30,0.000,0.0,0.0,0.0
08/01/2023,03:54:29,-0.000,0.0,0.0,0.0
08/01/2023,03:55:29,-0.000,0.0,0.0,0.0
08/01/2023,03:56:30,-0.000,0.0,0.0,0.0
08/01/2023,03:57:30,-0.001,0.0,0.0,0.0
08/01/2023,03:58:29,-0.000,0.0,0.0,0.0
08/01/2023,03:59:29,-0.000,0.0,0.0,0.0
08/01/2023,04:00:29,-0.000,0.0,0.0,0.0
08/01/2023,04:01:30,-0.001,0.0,0.0,0.0
08/01/2023,04:02:30,-0.001,0.0,0.0,0.0
08/01/2023,04:03:29,-0.000,0.0,0.0,0.0
08/01/2023,04:04:29,0.000,0.0,0.0,0.0
08/01/2023,04:05:30,-0.000,0.0,0.0,0.0
08/01/2023,04:06:30,0.000,0.0,0.0,0.0
08/01/2023,04:07:29,0.000,0.0,0.0,0.0
08/01/2023,04:08:30,-0.001,0.0,0.0,0.0
08/01/2023,04:09:29,0.000,0.0,0.0,0.0
08/01/2023,04:10:29,0.000,0.0,0.0,0.0
08/01/2023,04:11:30,0.001,0.0,0.0,0.0
08/01/2023,04:12:29,0.000,0.0,0.0,0.0
08/01/2023,04:13:29,-0.000,0.0,0.0,0.0
08/01/2023,04:14:29,-0.000,0.0,0.0,0.0
08/01/2023,04:15:30,0.000,0.0,0.0,0.0
08/01/2023,04:16:29,0.000,0.0,0.0,0.0
08/01/2023,04:17:31,0.000,0.0,0.0,0.0
08/01/2023,04:18:30,0.000,0.0,0.0,0.0
08/01/2023,04:19:29,0.000,0.0,0.0,0.0
08/01/2023,04:20:30,0.000,0.0,0.0,0.0
08/01/2023,04:21:29,-0.000,0.0,0.0,0.0
08/01/2023,04:22:30,0.000,0.0,0.0,0.0
08/01/2023,04:23:29,0.000,0.0,0.0,0.0
08/01/2023,04:24:30,0.000,0.0,0.0,0.0
08/01/2023,04:25:30,0.000,0.0,0.0,0.0
08/01/2023,04:26:31,0.000,0.0,0.0,0.0
08/01/2023,04:27:29,0.000,0.0,0.0,0.0
08/01/2023,04:28:29,0.000,0.0,0.0,0.0
08/01/2023,04:29:30,0.000,0.0,0.0,0.0
08/01/2023,04:30:29,-0.000,0.0,0.0,0.0
08/01/2023,04:31:29,0.000,0.0,0.0,0.0
08/01/2023,04:32:29,0.000,0.0,0.0,0.0
08/01/2023,04:33:30,0.000,0.0,0.0,0.0
08/01/2023,04:34:29,0.000,0.0,0.0,0.0
08/01/2023,04:35:30,-0.001,0.0,0.0,0.0
08/01/2023,04:36:29,0.000,0.0,0.0,0.0
08/01/2023,04:37:30,0.000,0.0,0.0,0.0
08/01/2023,04:38:29,-0.000,0.0,0.0,0.0
08/01/2023,04:39:29,0.000,0.0,0.0,0.0
08/01/2023,04:40:30,0.000,0.0,0.0,0.0
08/01/2023,04:41:29,-0.001,0.0,0.0,0.0
08/01/2023,04:42:29,0.000,0.0,0.0,0.0
08/01/2023,04:43:30,0.000,0.0,0.0,0.0
08/01/2023,04:44:30,0.000,0.0,0.0,0.0
08/01/2023,04:45:30,0.000,0.0,0.0,0.0
08/01/2023,04:46:30,0.000,0.0,0.0,0.0
08/01/2023,04:47:29,0.000,0.0,0.0,0.0
08/01/2023,04:48:29,0.000,0.0,0.0,0.0
08/01/2023,04:49:30,0.000,0.0,0.0,0.0
08/01/2023,04:50:29,0.000,0.0,0.0,0.0
08/01/2023,04:51:29,0.000,0.0,0.0,0.0
08/01/2023,04:52:30,0.000,0.0,0.0,0.0
08/01/2023,04:53:30,0.000,0.0,0.0,0.0
08/01/2023,04:54:30,0.000,0.0,0.0,0.0
08/01/2023,04:55:30,0.000,0.0,0.0,0.0
08/01/2023,04:56:30,0.000,0.0,0.0,0.0
08/01/2023,04:57:29,-0.001,0.0,0.0,0.0
08/01/2023,04:58:29,0.000,0.0,0.0,0.0
08/01/2023,04:59:30,0.000,0.0,0.0,0.0
08/01/2023,05:00:30,0.000,0.0,0.0,0.0
08/01/2023,05:01:29,0.000,0.0,0.0,0.0
08/01/2023,05:02:30,0.000,0.0,0.0,0.0
08/01/2023,05:03:30,0.000,0.0,0.0,0.0
08/01/2023,05:04:29,0.000,0.0,0.0,0.0
08/01/2023,05:05:30,0.000,0.0,0.0,0.0
08/01/2023,05:06:29,-0.001,0.0,0.0,0.0
08/01/2023,05:07:29,0.000,0.0,0.0,0.0
08/01/2023,05:08:30,-0.001,0.0,0.0,0.0
08/01/2023,05:09:30,0.000,0.0,0.0,0.0
08/01/2023,05:10:29,0.000,0.0,0.0,0.0
08/01/2023,05:11:30,0.000,0.0,0.0,0.0
08/01/2023,05:12:29,0.000,0.0,0.0,0.0
08/01/2023,05:13:29,0.000,0.0,0.0,0.0
08/01/2023,05:14:52,0.000,0.0,0.0,0.0
08/01/2023,05:15:29,0.000,0.0,0.0,0.0
08/01/2023,05:16:29,0.000,0.0,0.0,0.0
08/01/2023,05:17:29,0.000,0.0,0.0,0.0
08/01/2023,05:18:29,0.000,0.0,0.0,0.0
08/01/2023,05:19:30,0.000,0.0,0.0,0.0
08/01/2023,05:20:30,0.000,0.0,0.0,0.0
08/01/2023,05:21:29,0.000,0.0,0.0,0.0
08/01/2023,05:22:29,0.000,0.0,0.0,0.0
08/01/2023,05:23:30,0.000,0.0,0.0,0.0
08/01/2023,05:24:29,-0.000,0.0,0.0,0.0
08/01/2023,05:25:29,0.000,0.0,0.0,0.0
08/01/2023,05:26:30,0.000,0.0,0.0,0.0
08/01/2023,05:27:29,0.000,0.0,0.0,0.0
08/01/2023,05:28:29,0.000,0.0,0.0,0.0
08/01/2023,05:29:30,0.000,0.0,0.0,0.0
08/01/2023,05:30:31,0.000,0.0,0.0,0.0
08/01/2023,05:31:30,0.000,0.0,0.0,0.0
08/01/2023,05:32:30,0.000,0.0,0.0,0.0
08/01/2023,05:33:29,0.000,0.0,0.0,0.0
08/01/2023,05:34:29,0.000,0.0,0.0,0.0
08/01/2023,05:35:30,0.000,0.0,0.0,0.0
08/01/2023,05:36:29,0.000,0.0,0.0,0.0
08/01/2023,05:37:30,0.000,0.0,0.0,0.0
08/01/2023,05:38:29,0.000,0.0,0.0,0.0
08/01/2023,05:39:29,-0.001,0.0,0.0,0.0
08/01/2023,05:40:30,0.000,0.0,0.0,0.0
08/01/2023,05:41:30,0.001,0.0,0.0,0.0
08/01/2023,05:42:29,0.000,0.0,0.0,0.0
08/01/2023,05:43:30,0.000,0.0,0.0,0.0
08/01/2023,05:44:29,0.000,0.0,0.0,0.0
08/01/2023,05:45:30,0.000,0.0,0.0,0.0
08/01/2023,05:46:29,0.000,0.0,0.0,0.0
08/01/2023,05:47:30,0.000,0.0,0.0,0.0
08/01/2023,05:48:29,0.000,0.0,0.0,0.0
08/01/2023,05:49:30,0.000,0.0,0.0,0.0
08/01/2023,05:50:30,0.000,0.0,0.0,0.0
08/01/2023,05:51:29,0.000,0.0,0.0,0.0
08/01/2023,05:52:30,-0.001,0.0,0.0,0.0
08/01/2023,05:53:29,0.000,0.0,0.0,0.0
08/01/2023,05:54:29,0.000,0.0,0.0,0.0
08/01/2023,05:55:30,0.000,0.0,0.0,0.0
08/01/2023,05:56:30,0.000,0.0,0.0,0.0
08/01/2023,05:57:29,0.000,0.0,0.0,0.0
08/01/2023,05:58:29,0.000,0.0,0.0,0.0
08/01/2023,05:59:30,0.000,0.0,0.0,0.0
08/01/2023,06:00:30,0.000,0.0,0.0,0.0
08/01/2023,06:01:30,0.000,0.0,0.0,0.0
08/01/2023,06:02:30,0.000,0.0,0.0,0.0
08/01/2023,06:03:30,-0.001,0.0,0.0,0.0
08/01/2023,06:04:29,-0.001,0.0,0.0,0.0
08/01/2023,06:05:30,0.000,0.0,0.0,0.0
08/01/2023,06:06:30,0.000,0.0,0.0,0.0
08/01/2023,06:07:29,0.000,0.0,0.0,0.0
08/01/2023,06:08:30,0.000,0.0,0.0,0.0
08/01/2023,06:09:29,0.000,0.0,0.0,0.0
08/01/2023,06:10:30,-0.001,0.0,0.0,0.0
08/01/2023,06:11:29,0.000,0.0,0.0,0.0
08/01/2023,06:12:29,0.000,0.0,0.0,0.0
08/01/2023,06:13:29,0.000,0.0,0.0,0.0
08/01/2023,06:14:30,-0.001,0.0,0.0,0.0
08/01/2023,06:15:29,0.000,0.0,0.0,0.0
08/01/2023,06:16:29,0.000,0.0,0.0,0.0
08/01/2023,06:17:30,-0.000,0.0,0.0,0.0
08/01/2023,06:18:30,0.000,0.0,0.0,0.0
08/01/2023,06:19:29,-0.001,0.0,0.0,0.0
08/01/2023,06:20:30,-0.001,0.0,0.0,0.0
08/01/2023,06:21:29,0.000,0.0,0.0,0.0
08/01/2023,06:22:30,0.000,0.0,0.0,0.0
08/01/2023,06:23:30,0.000,0.0,0.0,0.0
08/01/2023,06:24:29,0.000,0.0,0.0,0.0
08/01/2023,06:25:30,0.000,0.0,0.0,0.0
08/01/2023,06:26:29,-0.001,0.0,0.0,0.0
08/01/2023,06:27:30,0.000,0.0,0.0,0.0
08/01/2023,06:28:29,0.000,0.0,0.0,0.0
08/01/2023,06:29:29,0.000,0.0,0.0,0.0
08/01/2023,06:30:30,0.000,0.0,0.0,0.0
08/01/2023,06:31:30,0.000,0.0,0.0,0.0
08/01/2023,06:32:29,0.000,0.0,0.0,0.0
08/01/2023,06:33:29,0.000,0.0,0.0,0.0
08/01/2023,06:34:30,0.000,0.0,0.0,0.0
08/01/2023,06:35:30,0.000,0.0,0.0,0.0
08/01/2023,06:36:29,0.000,0.0,0.0,0.0
08/01/2023,06:37:29,0.000,0.0,0.0,0.0
08/01/2023,06:38:29,0.000,0.0,0.0,0.0
08/01/2023,06:39:30,0.000,0.0,0.0,0.0
08/01/2023,06:40:30,0.000,0.0,0.0,0.0
08/01/2023,06:41:30,0.000,0.0,0.0,0.0
08/01/2023,06:42:30,0.000,0.0,0.0,0.0
08/01/2023,06:43:29,0.000,0.0,0.0,0.0
08/01/2023,06:44:29,0.000,0.0,0.0,0.0
08/01/2023,06:45:30,0.000,0.0,0.0,0.0
08/01/2023,06:46:30,0.000,0.0,0.0,0.0
08/01/2023,06:47:29,0.000,0.0,0.0,0.0
08/01/2023,06:48:30,0.001,0.0,0.0,0.0
08/01/2023,06:49:29,0.000,0.0,0.0,0.0
08/01/2023,06:50:29,0.000,0.0,0.0,0.0
08/01/2023,06:51:30,0.000,0.0,0.0,0.0
08/01/2023,06:52:29,-0.001,0.0,0.0,0.0
08/01/2023,06:53:30,0.000,0.0,0.0,0.0
08/01/2023,06:54:30,0.000,0.0,0.0,0.0
08/01/2023,06:55:29,0.000,0.0,0.0,0.0
08/01/2023,06:56:30,0.000,0.0,0.0,0.0
08/01/2023,06:57:30,0.000,0.0,0.0,0.0
08/01/2023,06:58:29,0.000,0.0,0.0,0.0
08/01/2023,06:59:29,0.000,0.0,0.0,0.0
08/01/2023,07:00:30,0.000,0.0,0.0,0.0
08/01/2023,07:01:30,0.000,0.0,0.0,0.0
08/01/2023,07:02:29,0.000,0.0,0.0,0.0
08/01/2023,07:03:30,0.000,0.0,0.0,0.0
08/01/2023,07:04:30,0.000,0.0,0.0,0.0
08/01/2023,07:05:30,0.000,0.0,0.0,0.0
08/01/2023,07:06:30,-0.001,0.0,0.0,0.0
08/01/2023,07:07:30,0.000,0.0,0.0,0.0
08/01/2023,07:08:30,0.000,0.0,0.0,0.0
08/01/2023,07:09:29,0.000,0.0,0.0,0.0
08/01/2023,07:10:30,0.000,0.0,0.0,0.0
08/01/2023,07:11:29,0.000,0.0,0.0,0.0
08/01/2023,07:12:30,0.000,0.0,0.0,0.0
08/01/2023,07:13:30,0.000,0.0,0.0,0.0
08/01/2023,07:14:30,0.000,0.0,0.0,0.0
08/01/2023,07:15:30,0.000,0.0,0.0,0.0
08/01/2023,07:16:30,-0.001,0.0,0.0,0.0
08/01/2023,07:17:30,0.000,0.0,0.0,0.0
08/01/2023,07:18:30,0.000,0.0,0.0,0.0
08/01/2023,07:19:30,0.000,0.0,0.0,0.0
08/01/2023,07:20:30,0.000,0.0,0.0,0.0
08/01/2023,07:21:30,0.000,0.0,0.0,0.0
08/01/2023,07:22:30,-0.000,0.0,0.0,0.0
08/01/2023,07:23:30,0.000,0.0,0.0,0.0
08/01/2023,07:24:30,0.000,0.0,0.0,0.0
08/01/2023,07:25:30,0.000,0.0,0.0,0.0
08/01/2023,07:26:30,0.000,0.0,0.0,0.0
08/01/2023,07:27:29,0.000,0.0,0.0,0.0
08/01/2023,07:28:30,0.000,0.0,0.0,0.0
08/01/2023,07:29:30,0.000,0.0,0.0,0.0
08/01/2023,07:30:30,0.000,0.0,0.0,0.0
08/01/2023,07:31:30,0.000,0.0,0.0,0.0
08/01/2023,07:32:30,0.000,0.0,0.0,0.0
08/01/2023,07:33:30,0.000,0.0,0.0,0.0
08/01/2023,07:34:29,0.000,0.0,0.0,0.0
08/01/2023,07:35:29,0.000,0.0,0.0,0.0
08/01/2023,07:36:30,0.000,0.0,0.0,0.0
08/01/2023,07:37:29,0.000,0.0,0.0,0.0
08/01/2023,07:38:30,0.000,0.0,0.0,0.0
08/01/2023,07:39:29,0.000,0.0,0.0,0.0
08/01/2023,07:40:30,0.000,0.0,0.0,0.0
08/01/2023,07:41:30,0.000,0.0,0.0,0.0
08/01/2023,07:42:30,0.001,0.0,0.0,0.0
08/01/2023,07:43:30,0.001,0.0,0.0,0.0
08/01/2023,07:44:30,0.000,0.0,0.0,0.0
08/01/2023,07:45:30,0.001,0.0,0.0,0.0
08/01/2023,07:46:29,0.001,0.0,0.0,0.0
08/01/2023,07:47:30,0.001,0.0,0.0,0.0
08/01/2023,07:48:30,0.001,0.0,0.0,0.0
08/01/2023,07:49:30,0.001,0.0,0.0,0.0
08/01/2023,07:50:30,0.001,0.0,0.0,0.0
08/01/2023,07:51:29,0.001,0.0,0.0,0.0
08/01/2023,07:52:29,0.001,0.0,0.0,0.0
08/01/2023,07:53:30,0.001,0.0,0.0,0.0
08/01/2023,07:54:30,0.001,0.0,0.0,0.0
08/01/2023,07:55:30,0.001,0.0,0.0,0.0
08/01/2023,07:56:30,0.001,0.0,0.0,0.0
08/01/2023,07:57:29,0.001,0.0,0.0,0.0
08/01/2023,07:58:29,0.001,0.0,0.0,0.0
08/01/2023,07:59:30,0.002,0.0,0.0,0.0
08/01/2023,08:00:30,0.001,0.0,0.0,0.0
08/01/2023,08:01:30,0.001,0.0,0.0,0.0
08/01/2023,08:02:30,0.002,0.0,0.0,0.0
08/01/2023,08:03:30,0.002,0.0,0.0,0.0
08/01/2023,08:04:30,0.002,0.0,0.0,0.0
08/01/2023,08:05:30,0.002,0.0,0.0,0.0
08/01/2023,08:06:30,0.002,0.0,0.0,0.0
08/01/2023,08:07:30,0.002,0.0,0.0,0.0
08/01/2023,08:08:29,0.002,0.0,0.0,0.0
08/01/2023,08:09:30,0.003,0.0,0.0,0.0
08/01/2023,08:10:30,0.003,0.0,0.0,0.0
08/01/2023,08:11:30,0.003,0.0,0.0,0.0
08/01/2023,08:12:30,0.002,0.0,0.0,0.0
08/01/2023,08:13:29,0.003,0.0,0.0,0.0
08/01/2023,08:14:30,0.003,0.0,0.0,0.0
08/01/2023,08:15:30,0.005,0.0,0.0,0.0
08/01/2023,08:16:30,0.003,0.0,0.0,0.0
08/01/2023,08:17:30,0.004,0.0,0.0,0.0
08/01/2023,08:18:30,0.004,0.0,0.0,0.0
08/01/2023,08:19:30,0.005,0.0,0.0,0.0
08/01/2023,08:20:30,0.004,0.0,0.0,0.0
08/01/2023,08:21:30,0.005,0.0,0.0,0.0
08/01/2023,08:22:30,0.005,0.0,0.0,0.0
08/01/2023,08:23:30,0.005,0.0,0.0,0.0
08/01/2023,08:24:30,0.005,0.0,0.0,0.0
08/01/2023,08:25:30,0.006,0.0,0.0,0.0
08/01/2023,08:26:30,0.006,0.0,0.0,0.0
08/01/2023,08:27:30,0.007,0.0,0.0,0.0
08/01/2023,08:28:30,0.007,0.0,0.0,0.0
08/01/2023,08:29:29,0.006,0.0,0.0,0.0
08/01/2023,08:30:29,0.007,0.0,0.0,0.0
08/01/2023,08:31:30,0.008,0.0,0.0,0.0
08/01/2023,08:32:30,0.007,0.0,0.001,0.001
08/01/2023,08:33:30,0.008,0.0,0.001,0.0
08/01/2023,08:34:30,0.008,0.0,0.001,0.0
08/01/2023,08:35:29,0.008,0.0,0.001,0.0
08/01/2023,08:36:30,0.008,0.0,0.001,0.0
08/01/2023,08:37:30,0.008,0.0,0.001,0.0
08/01/2023,08:38:30,0.009,0.0,0.001,0.0
08/01/2023,08:39:30,0.009,0.0,0.002,0.001
08/01/2023,08:40:29,0.009,0.0,0.002,0.0
08/01/2023,08:41:30,0.010,0.0,0.002,0.0
08/01/2023,08:42:30,0.008,0.0,0.002,0.0
08/01/2023,08:43:30,0.010,0.0,0.002,0.0
08/01/2023,08:44:30,0.010,0.0,0.002,0.0
08/01/2023,08:45:30,0.011,0.0,0.003,0.001
08/01/2023,08:46:30,0.011,0.0,0.003,0.0
08/01/2023,08:47:29,0.011,0.0,0.003,0.0
08/01/2023,08:48:30,0.012,0.0,0.003,0.0
08/01/2023,08:49:31,0.013,0.0,0.003,0.0
08/01/2023,08:50:30,0.013,0.0,0.004,0.001
08/01/2023,08:51:30,0.012,0.0,0.004,0.0
08/01/2023,08:52:30,0.013,0.0,0.004,0.0
08/01/2023,08:53:30,0.013,0.0,0.004,0.0
08/01/2023,08:54:30,0.014,0.0,0.004,0.0
08/01/2023,08:55:30,0.015,0.0,0.005,0.001
08/01/2023,08:56:30,0.014,0.0,0.005,0.0
08/01/2023,08:57:30,0.015,0.0,0.005,0.0
08/01/2023,08:58:29,0.016,0.0,0.005,0.0
08/01/2023,08:59:30,0.017,0.0,0.006,0.001
08/01/2023,09:00:30,0.017,0.0,0.006,0.0
08/01/2023,09:01:30,0.018,0.0,0.006,0.0
08/01/2023,09:02:30,0.018,0.0,0.006,0.0
08/01/2023,09:03:30,0.019,0.0,0.007,0.001
08/01/2023,09:04:30,0.019,0.0,0.007,0.0
08/01/2023,09:05:30,0.019,0.0,0.007,0.0
08/01/2023,09:06:30,0.021,0.0,0.008,0.001
08/01/2023,09:07:30,0.021,0.0,0.008,0.0
08/01/2023,09:08:30,0.022,0.0,0.008,0.0
08/01/2023,09:09:30,0.022,0.0,0.009,0.001
08/01/2023,09:10:30,0.022,0.0,0.009,0.0
08/01/2023,09:11:30,0.024,0.0,0.01,0.001
08/01/2023,09:12:30,0.024,0.0,0.01,0.0
08/01/2023,09:13:30,0.024,0.0,0.01,0.0
08/01/2023,09:14:30,0.023,0.0,0.011,0.001
08/01/2023,09:15:30,0.023,0.0,0.011,0.0
08/01/2023,09:16:30,0.023,0.0,0.012,0.001
08/01/2023,09:17:30,0.022,0.0,0.012,0.0
08/01/2023,09:18:30,0.022,0.0,0.012,0.0
08/01/2023,09:19:30,0.022,0.0,0.013,0.001
08/01/2023,09:20:30,0.021,0.0,0.013,0.0
08/01/2023,09:21:30,0.022,0.0,0.013,0.0
08/01/2023,09:22:30,0.022,0.0,0.014,0.001
08/01/2023,09:23:30,0.023,0.0,0.014,0.0
08/01/2023,09:24:30,0.023,0.0,0.014,0.0
08/01/2023,09:25:30,0.025,0.0,0.015,0.001
08/01/2023,09:26:30,0.027,0.0,0.015,0.0
08/01/2023,09:27:30,0.028,0.0,0.016,0.001
08/01/2023,09:28:30,0.030,0.0,0.016,0.0
08/01/2023,09:29:31,0.032,0.0,0.017,0.001
08/01/2023,09:30:30,0.032,0.0,0.017,0.0
08/01/2023,09:31:30,0.033,0.0,0.018,0.001
08/01/2023,09:32:30,0.034,0.0,0.018,0.0
08/01/2023,09:33:30,0.035,0.0,0.019,0.001
08/01/2023,09:34:30,0.034,0.0,0.02,0.001
08/01/2023,09:35:30,0.034,0.0,0.02,0.0
08/01/2023,09:36:30,0.034,0.0,0.021,0.001
08/01/2023,09:37:30,0.032,0.0,0.021,0.0
08/01/2023,09:38:30,0.032,0.0,0.022,0.001
08/01/2023,09:39:30,0.030,0.0,0.022,0.0
08/01/2023,09:40:31,0.029,0.0,0.023,0.001
08/01/2023,09:41:30,0.028,0.0,0.023,0.0
08/01/2023,09:42:29,0.027,0.0,0.024,0.001
08/01/2023,09:43:30,0.027,0.0,0.024,0.0
08/01/2023,09:44:30,0.028,0.0,0.025,0.001
08/01/2023,09:45:30,0.028,0.0,0.025,0.0
08/01/2023,09:46:30,0.030,0.0,0.026,0.001
08/01/2023,09:47:30,0.030,0.0,0.026,0.0
08/01/2023,09:48:30,0.032,0.0,0.027,0.001
08/01/2023,09:49:30,0.034,0.0,0.027,0.0
08/01/2023,09:50:30,0.037,0.0,0.028,0.001
08/01/2023,09:51:30,0.038,0.0,0.028,0.0
08/01/2023,09:52:30,0.040,0.0,0.029,0.001
08/01/2023,09:53:30,0.042,0.0,0.03,0.001
08/01/2023,09:54:30,0.045,0.0,0.03,0.0
08/01/2023,09:55:30,0.045,0.0,0.031,0.001
08/01/2023,09:56:30,0.047,0.0,0.032,0.001
08/01/2023,09:57:30,0.049,0.0,0.033,0.001
08/01/2023,09:58:30,0.050,0.0,0.034,0.001
08/01/2023,09:59:30,0.051,0.0,0.034,0.0
08/01/2023,10:00:30,0.053,0.0,0.035,0.001
08/01/2023,10:01:30,0.055,0.0,0.036,0.001
08/01/2023,10:02:30,0.056,0.0,0.037,0.001
08/01/2023,10:03:30,0.057,0.0,0.038,0.001
08/01/2023,10:04:30,0.057,0.0,0.039,0.001
08/01/2023,10:05:30,0.058,0.0,0.04,0.001
08/01/2023,10:06:31,0.058,0.0,0.041,0.001
08/01/2023,10:07:30,0.058,0.0,0.042,0.001
08/01/2023,10:08:30,0.058,0.0,0.043,0.001
08/01/2023,10:09:30,0.057,0.0,0.044,0.001
08/01/2023,10:10:30,0.056,0.0,0.045,0.001
08/01/2023,10:11:30,0.055,0.0,0.046,0.001
08/01/2023,10:12:30,0.053,0.0,0.047,0.001
08/01/2023,10:13:30,0.055,0.0,0.047,0.0
08/01/2023,10:14:30,0.053,0.0,0.048,0.001
08/01/2023,10:15:30,0.051,0.0,0.049,0.001